Location: ??????
(38.0131°N, 23.7723°E)
Time: 17:46:29
(UTC+00:00)

METEOR 2-5 DEB - Pass Details

Date: 11 August 2022
Orbit: 809 x 849 km, 81.2° (Epoch: 29 September)

Event Time Altitude Azimuth Distance (km) Brightness Sun altitude
Rises 20:46:41 0° 340° (NNW) 3,358 ? -31.6°
Reaches altitude 10° 20:49:19 10° 330° (NNW) 2,416 ? -31.9°
Enters shadow 20:53:58 31° 272° (W) 1,388 ? -32.3°
